Location: Andrest
(43.3200°N, 0.0641°E)
Time: 15:12:20
(UTC+00:00)

Cosmos 158 Rocket - Pass Details

Date: 01 December 2020
Orbit: 698 x 793 km, 74.0° (Epoch: 23 January)

Event Time Altitude Azimuth Distance (km) Brightness Sun altitude
Rises 18:52:34 0° 212° (SSW) 3,126 7.7 -26.2°
Reaches altitude 10° 18:54:58 10° 217° (SW) 2,196 6.9 -26.6°
Maximum altitude 18:59:48 53° 294° (WNW) 871 4.5 -27.5°
Enters shadow 19:00:53 44° 337° (NNW) 981 4.6 -27.7°
